Flag for Russia Weather past 2 weeks in Kazan, Russia

Now
34 °F

Light rain. Low clouds.


Feels Like: 22 °F
Forecast: 33 / 40 °F
Wind: 20 mph from Northwest

Location: Kazan'

Current Time: Oct 2, 2014 at 10:01:57 AM

Latest Report: Oct 2, 2014 at 9:30 AM


Visibility: 2 mi

Pressure: 29.83 "Hg

Humidity: 100%

Dew point: 34 °F

Location of KazanLocation

Historic Weather in Kazan — Graph

°F

Kazan temperature yesterday

Maximum temperature yesterday: 46 °F (at 12:00 AM)
Minimum temperature yesterday: 39 °F (at 10:30 PM)
Average temperature yesterday: 43 °F

Past Weeks' High & Low Weather Summary

 TemperatureHumidityPressure
High72 °F (Sep 25, 2:30 PM)100% (Sep 22, 4:00 AM)30.36 "Hg (Sep 22, 4:00 AM)
Low36 °F (Oct 2, 6:00 AM)29% (Sep 24, 1:00 PM)29.42 "Hg (Oct 1, 1:30 AM)
Average51 °F74%29.98 "Hg
* Reported Sep 17 9:00 AM — Oct 2 9:00 AM, Kazan, Weather by CustomWeather, © 2014

Note: Actual official high and low records may vary slightly from our data, if they occured in-between our weather recording intervals... More about our weather records

Advertising

Kazan weather history for previous 24 hours

 ConditionsComfort  
Time TempWeatherWind HumidityBarometerVisibility
9:00 AM
Oct 2
36 °FLight rain. Overcast.20 mph93%29.80 "Hg3 mi
8:30 AM36 °FOvercast.20 mph93%29.80 "HgN/A
8:00 AM36 °FOvercast.20 mph93%29.80 "HgN/A
7:30 AM36 °FLight rain. Overcast.20 mph93%29.80 "HgN/A
7:00 AM36 °FLight rain. Overcast.22 mph93%29.77 "Hg3 mi
6:30 AM36 °FLight rain. Overcast.22 mph93%29.77 "HgN/A
6:00 AM36 °FLight rain. Overcast.20 mph93%29.77 "HgN/A
5:30 AM37 °FOvercast.24 mph81%29.77 "HgN/A
5:00 AM37 °FOvercast.22 mph81%29.77 "HgN/A
4:30 AM37 °FOvercast.22 mph81%29.77 "HgN/A
4:00 AM37 °FOvercast.20 mph81%29.77 "HgN/A
3:30 AM39 °FOvercast.22 mph75%29.77 "HgN/A
3:00 AM39 °FOvercast.24 mph81%29.74 "HgN/A
2:30 AM39 °FOvercast.20 mph81%29.74 "HgN/A
2:00 AM39 °FOvercast.20 mph81%29.74 "HgN/A
1:30 AM39 °FOvercast.20 mph81%29.74 "HgN/A
1:00 AM39 °FOvercast.20 mph81%29.74 "HgN/A
12:30 AM39 °FOvercast.20 mph87%29.74 "HgN/A
12:00 AM39 °FOvercast.20 mph81%29.74 "HgN/A
11:30 PM
Oct 1
39 °FOvercast.22 mph81%29.74 "HgN/A
11:00 PM39 °FOvercast.20 mph81%29.74 "HgN/A
10:30 PM39 °FOvercast.22 mph87%29.74 "HgN/A
10:00 PM41 °FOvercast.22 mph81%29.74 "HgN/A
9:30 PM41 °FOvercast.22 mph81%29.74 "HgN/A
9:00 PM41 °FLight rain. Overcast.22 mph81%29.71 "HgN/A
8:30 PM41 °FLight rain. Overcast.22 mph87%29.71 "HgN/A
8:00 PM41 °FLight rain. Overcast.20 mph87%29.71 "HgN/A
7:30 PM41 °FLight rain. Overcast.24 mph87%29.68 "HgN/A
7:00 PM41 °FLight rain. Overcast.24 mph87%29.68 "HgN/A
6:30 PM41 °FLight rain. Overcast.24 mph87%29.68 "HgN/A
6:00 PM41 °FLight rain. Overcast.26 mph87%29.68 "HgN/A
5:30 PM41 °FLight rain. Overcast.26 mph93%29.65 "HgN/A
5:00 PM43 °FSprinkles. Partly sunny.26 mph87%29.65 "HgN/A
4:30 PM43 °FSprinkles. Partly sunny.29 mph87%29.62 "HgN/A
4:00 PM43 °FSprinkles. Partly sunny.26 mph87%29.62 "HgN/A
3:30 PM43 °FSprinkles. Partly sunny.26 mph87%29.62 "HgN/A
3:00 PM43 °FSprinkles. Partly sunny.26 mph87%29.59 "HgN/A
2:30 PM43 °FSprinkles. Partly sunny.26 mph87%29.59 "HgN/A
2:00 PM43 °FSprinkles. Partly sunny.26 mph87%29.56 "HgN/A
1:30 PM43 °FSprinkles. Partly sunny.31 mph87%29.56 "HgN/A
1:00 PM43 °FSprinkles. Partly sunny.29 mph93%29.53 "HgN/A
12:30 PM43 °FSprinkles. Partly sunny.31 mph87%29.53 "HgN/A
12:00 PM43 °FSprinkles. Broken clouds.29 mph93%29.50 "HgN/A
11:30 AM43 °FSprinkles. Partly sunny.26 mph87%29.50 "HgN/A
11:00 AM43 °FSprinkles. Partly sunny.26 mph93%29.47 "HgN/A
10:30 AM43 °FSprinkles. Partly sunny.26 mph93%29.47 "HgN/A
10:00 AM43 °FSprinkles. Partly sunny.29 mph93%29.45 "HgN/A
Weather by CustomWeather, © 2014

See weather overviewHow to use our weather pages